User: anonymous   Login
Location: Caltech
(34.1382°N, 118.1253°W)
Time: 18:39:34
(UTC-08:00)
Language:

JAS-2 - Orbit

View from above orbital plane
View from above orbital plane
View from above satellite
View from above satellite

Ground track
Ground track

The orbit data is extracted from the following two-line orbital elements,

1 24278U 96046B   14327.51738634 -.00000004  00000-0  34699-4 0  5246
2 24278 098.5178 319.4001 0349628 244.1368 233.9304 13.53037172902211
Epoch (UTC): 23 November 2014 12:25:02
Eccentricity: 0.0349628
inclination: 98.5178°
perigee height: 801 km
apogee height: 1321 km
right ascension of ascending node: 319.4001°
argument of perigee: 244.1368°
revolutions per day: 13.53037172
mean anomaly at epoch: 233.9304°
orbit number at epoch: 90221

The dashed part of the orbit path shows where the satellite is in the earth's shadow,  

DLR